User: anonymous   Login
Location: Theydon Bois
(51.6750°N, 0.1050°E)
Time: 06:57:57
(UTC+01:00)
Language:

Cosmos 2056 Rocket - Orbit

View from above orbital plane
View from above orbital plane
View from above satellite
View from above satellite

Ground track
Ground track

The orbit data is extracted from the following two-line orbital elements,

1 20433U 90004B   18112.58719556 +.00000004 +00000-0 +10396-4 0  9991
2 20433 074.0348 148.1563 0041412 203.6287 271.2856 14.36027279479336
Epoch (UTC): 22 April 2018 14:05:33
Eccentricity: 0.0041412
inclination: 74.0348°
perigee height: 742 km
apogee height: 801 km
right ascension of ascending node: 148.1563°
argument of perigee: 203.6287°
revolutions per day: 14.36027279
mean anomaly at epoch: 271.2856°
orbit number at epoch: 47933

The dashed part of the orbit path shows where the satellite is in the earth's shadow,  

DLR